Regional Weather Roundup
Issued by NWS Jackson, KY

Home | Current Version | Previous Version | Text Only | Print | Product List | Glossary Off
Versions: 1 2 3 4 5 6 7 8 9 10 11 12 13 14 15 16 17 18 19 20 21 22 23 24 25 26 27 28 29 30 31 32 33 34 35 36 37 38 39 40 41 42 43 44 45 46 47 48 49 50

000
ASUS43 KJKL 061310
RWRJKL

EAST KENTUCKY HOURLY WEATHER ROUNDUP
NATIONAL WEATHER SERVICE JACKSON KY
900 AM EDT MON JUL 06 2015

NOTE: "FAIR" INDICATES FEW OR NO CLOUDS BELOW 12,000 FEET WITH
NO SIGNIFICANT WEATHER AND/OR OBSTRUCTIONS TO VISIBILITY.

* THESE REPORTS ARE NOT UNDER NWS QUALITY CONTROL AND MAY NOT
  REPORT WEATHER SUCH AS PRECIPITATION AND FOG.

KYZ079-080-083-085-087-088-110-112-115-119-120-061400
...EASTERN KENTUCKY...

CITY           SKY/WX    TMP DP  RH WIND       PRES   REMARKS
JACKSON        FOG       67  66  97 CALM      30.15S VSB 1/4
MIDDLESBORO*   CLOUDY    65  65 100 CALM      30.17S FOG
HARLAN APT*      N/A     66  66 100 N3        30.18R
HAZARD APT*    CLOUDY    68  68 100 SW5       30.15S
BLACK MTN*       N/A     61  61 100 S2          N/A
PIKEVILLE APT* DRIZZLE   66  64  94 CALM      30.15R
$$

KYZ035-036-041-042-044-050-067-078-099-061400
...CENTRAL KENTUCKY...

CITY           SKY/WX    TMP DP  RH WIND       PRES   REMARKS
FLEMING/MASON* SUNNY     72  64  78 W5        30.13S
DANVILLE*      PTSUNNY   66  66 100 CALM      30.15S
RICHMOND*      SUNNY     70  66  88 CALM      30.14S
$$

KYZ091>093-OHZ055-061-077-WVZ005-015-034-035-042-061400
...SOUTHERN OHIO/WEST VIRGINIA...

CITY           SKY/WX    TMP DP  RH WIND       PRES   REMARKS
$$

VAZ002-007-008-TNZ017-027-036-066-071-061400
...SOUTHWEST VIRGINIA/EAST TENNESSEE...

CITY           SKY/WX    TMP DP  RH WIND       PRES   REMARKS
WISE*          PTSUNNY   66  64  94 SW6       30.22R
OAK RIDGE      MOSUNNY   73  68  84 VRB5      30.17S
$$

...KEY TO REMARKS...
VSB - VISIBILITY IN MILES
WCI - WIND CHILL INDEX
HX  - HEAT INDEX

$$


USA.gov is the U.S. government's official web portal to all federal, state and local government web resources and services.